Home > Weather > Rostock > Past weeks

Flag for Germany Past Weather in Rostock, Mecklenburg-Western Pomerania, Germany — Yesterday and Last 2 Weeks

Now
57 °F

Passing clouds.


Feels Like: 57 °F
Forecast: 58 / 74 °F
Wind: 3 mph from North

Location: Laage

Current Time: Jun 30, 2016 at 5:27:05 AM

Latest Report: Jun 30, 2016 at 4:20 AM


Visibility: N/A

Pressure: 29.89 "Hg

Humidity: 88%

Dew Point: 54 °F

Location of RostockLocation

Past Weather in Rostock — Graph

°F

Rostock Temperature Yesterday

Maximum temperature yesterday: 70 °F (at 3:20 PM)
Minimum temperature yesterday: 54 °F (at 2:20 AM)
Average temperature yesterday: 61 °F

High & Low Weather Summary for the Past Weeks

 TemperatureHumidityPressure
High88 °F (Jun 23, 3:20 PM)100% (Jun 15, 3:20 AM)30.24 "Hg (Jun 15, 3:20 AM)
Low46 °F (Jun 20, 5:20 AM)40% (Jun 24, 2:20 PM)29.47 "Hg (Jun 15, 3:20 AM)
Average65 °F76%29.92 "Hg
* Reported Jun 15 3:20 AM — Jun 30 3:20 AM, Rostock, Weather by CustomWeather, © 2016

Note: Actual official high and low records may vary slightly from our data, if they occured in-between our weather recording intervals... More about our weather records

Advertising

Rostock Weather History for the Previous 24 Hours

Scroll right to see more
 ConditionsComfort  
Time TempWeatherWind HumidityBarometerVisibility
3:20 AM
Thu, Jun 30
57 °FPassing clouds.3 mph88%29.89 "HgN/A
2:20 AM57 °FPassing clouds.6 mph82%29.89 "HgN/A
1:20 AM55 °FPassing clouds.3 mph88%29.89 "HgN/A
12:20 AM55 °FPassing clouds.2 mph88%29.89 "HgN/A
11:20 PM
Wed, Jun 29
59 °FPassing clouds.3 mph82%29.89 "HgN/A
10:20 PM61 °FPassing clouds.5 mph77%29.89 "HgN/A
9:20 PM63 °FPassing clouds.8 mph73%29.86 "HgN/A
8:20 PM66 °FScattered clouds.10 mph60%29.86 "HgN/A
7:20 PM68 °FScattered clouds.13 mph56%29.83 "HgN/A
6:20 PM70 °FPassing clouds.10 mph53%29.83 "HgN/A
5:20 PM70 °FPassing clouds.13 mph50%29.83 "HgN/A
4:20 PM70 °FScattered clouds.13 mph60%29.83 "HgN/A
3:20 PM70 °FScattered clouds.7 mph60%29.80 "HgN/A
2:20 PM68 °FPartly sunny.8 mph64%29.80 "HgN/A
1:20 PM66 °FScattered clouds.12 mph73%29.80 "HgN/A
12:20 PM63 °FBroken clouds.9 mph88%29.80 "HgN/A
11:20 AM61 °FBroken clouds.3 mph94%29.80 "HgN/A
10:20 AM59 °FSprinkles. Fog.6 mph94%29.80 "Hg2 mi
9:20 AM59 °FLight rain. Fog.7 mph94%29.80 "Hg3 mi
8:20 AM57 °FLight rain. Broken clouds.7 mph94%29.80 "HgN/A
7:20 AM57 °FLight rain. Broken clouds.1 mph94%29.83 "HgN/A
6:49 AM57 °FLight rain. More clouds than sun.1 mph94%29.86 "HgN/A
6:20 AM57 °FLight rain. Mostly cloudy.2 mph94%29.86 "HgN/A
5:20 AM57 °FPassing clouds.7 mph88%29.86 "HgN/A
Weather by CustomWeather, © 2016

See weather overviewHow to use our weather pages